Location: Lane
(33.5226°N, 79.8788°W)
Time: 12:45:28
(UTC+00:00)

Explorer 7 - Pass Details

Date: 12 October 2022
Orbit: 481 x 665 km, 50.3° (Epoch: 26 November)

Event Time Altitude Azimuth Distance (km) Brightness Sun altitude
Rises 16:39:01 0° 319° (NW) 3,003 10.2 48.4°
Reaches altitude 10° 16:42:31 10° 345° (NNW) 2,079 9.5 48.5°
Maximum altitude 16:45:02 14° 16° (NNE) 1,811 9.2 48.6°
Drops below altitude 10° 16:47:30 10° 48° (NE) 2,046 9.6 48.7°
Sets 16:50:54 0° 74° (ENE) 2,921 10.4 48.7°
